Temperature
16 16 17 17 17 17 17 17 17 17 17 17 17 17 17 17 17 17 17 18 18 18 18 18 18 18 18 18 18 18 18 18 18 18 18 18 18 18 18 18 18 17 18
16 16 17 17 16 16 17 17 17 17 17 17 17 17 17 17 17 17 17 17 18 18 18 18 18 18 18 18 18 18 18 18 18 18 18 18 18 18 18 18 18 17 18
16 16 16 17 16 16 17 17 17 17 17 17 17 17 17 17 17 17 17 17 17 18 18 18 18 18 18 18 18 18 18 18 18 18 18 17 17 18 18 18 18 18 18
16 16 16 16 16 16 16 16 17 17 17 17 17 17 17 17 17 17 17 17 17 17 17 17 17 17 17 17 17 18 18 18 18 18 17 17 17 17 18 18 18 18 18
16 16 16 17 16 16 16 16 17 17 17 17 17 17 17 17 17 17 17 17 17 17 17 17 17 17 17 17 17 17 17 18 18 17 17 17 17 17 17 17 17 17 17
16 16 16 17 16 16 16 16 16 17 17 17 17 17 17 17 17 17 17 17 17 17 17 17 17 17 17 17 17 17 17 18 17 17 17 17 17 17 17 17 17 17 17
16 16 16 17 16 16 16 16 16 16 16 17 17 17 17 17 17 17 16 17 17 17 17 17 17 17 17 17 17 17 17 17 17 17 17 17 17 17 17 17 17 17 17
16 16 16 17 17 16 16 16 16 16 16 17 17 17 17 17 17 17 17 16 17 17 17 17 17 17 17 17 17 17 17 17 16 16 16 16 17 17 17 17 17 17 17
16 16 16 16 16 16 16 16 16 16 16 16 16 16 17 17 16 16 16 16 16 16 16 16 16 16 16 17 17 17 17 17 16 16 16 16 16 17 17 17 17 17 17
17 17 16 16 16 16 16 16 16 16 16 16 16 16 16 16 16 16 16 16 16 16 16 16 16 16 16 16 16 17 16 16 16 16 16 16 16 16 16 16 16 16 16
17 17 17 16 16 16 16 16 16 16 16 16 16 16 16 16 16 16 16 16 16 16 16 16 16 16 16 16 16 16 16 16 16 16 16 16 16 16 16 16 16 16 16
17 17 17 17 16 16 16 16 16 16 16 16 16 16 16 16 16 16 16 16 16 16 16 16 16 16 16 16 16 16 16 16 16 16 16 16 16 16 16 16 16 16 16
17 17 17 17 16 16 16 16 16 16 16 16 16 16 16 16 16 16 16 16 16 16 16 16 16 16 16 15 15 15 15 15 15 15 16 16 16 16 16 16 16 16 16
17 17 17 17 16 16 16 16 16 16 16 16 15 15 16 16 15 15 16 15 15 15 15 15 15 15 15 15 15 15 15 15 15 15 15 15 16 15 15 15 16 15 15
17 17 17 16 16 16 16 16 16 16 15 15 15 15 15 15 15 15 15 15 15 15 15 15 15 15 15 15 15 15 15 15 15 15 15 15 15 15 15 15 15 15 15
17 17 17 17 16 16 16 16 16 15 15 15 15 15 15 15 15 15 15 15 15 15 15 15 15 15 15 15 15 15 15 15 15 15 15 15 15 15 15 15 15 15 15
18 17 17 16 16 16 16 16 16 15 15 15 15 15 15 15 15 15 15 15 15 15 15 15 15 15 15 15 15 15 15 15 15 15 15 15 14 15 15 15 15 15 14
18 17 17 16 16 16 16 15 15 15 15 15 15 15 15 15 15 15 15 15 15 15 15 15 15 14 15 15 15 14 14 15 15 14 14 14 14 14 14 14 14 14 14
18 17 17 16 16 16 15 15 15 15 15 15 15 15 15 15 15 15 15 15 14 14 14 14 14 14 14 14 14 14 14 14 14 14 14 14 14 14 14 14 14 14 14
17 17 17 16 16 16 15 15 15 15 15 15 15 14 14 15 14 14 14 14 14 14 14 14 14 14 14 14 14 14 14 14 14 14 14 14 14 14 14 14 14 14 14
17 17 17 16 16 16 15 15 15 15 15 15 14 14 14 14 14 14 14 14 14 14 14 14 14 14 14 14 14 14 14 14 14 14 14 13 13 13 13 13 13 13 13
17 17 17 16 16 16 15 15 15 15 15 15 14 14 14 14 14 14 14 14 14 14 14 14 14 13 13 14 14 14 14 14 13 13 13 13 13 13 13 13 13 13 13
17 17 17 16 16 16 15 15 15 15 15 14 14 14 14 14 14 14 14 14 14 14 13 13 13 13 13 13 14 14 15 15 14 13 13 13 13 13 13 13 13 13 13
17 17 17 16 16 16 15 15 15 15 15 15 15 14 14 14 14 14 14 14 14 13 13 13 13 13 13 13 13 14 14 14 14 14 13 13 13 13 13 13 13 12 12
17 17 17 16 16 16 15 15 15 15 15 15 14 14 14 14 14 14 14 14 13 13 13 13 13 13 13 13 13 13 13 13 14 14 14 13 13 13 12 12 12 12 12
17 17 17 16 16 16 15 15 15 15 15 14 14 14 14 14 14 14 14 13 13 13 13 13 13 13 13 13 13 13 13 13 13 13 14 13 13 12 12 12 12 12 12
Wind_Speed
4 5 6 5 5 5 6 5 6 6 7 7 7 7 6 5 4 5 5 5 5 5 5 6 6 7 8 8 8 8 8 8 8 7 7 7 7 7 6 5 3 6 8
4 4 5 5 5 5 6 6 6 6 7 7 8 7 6 5 4 4 5 5 6 6 6 6 7 8 9 9 8 8 8 8 7 7 6 6 7 6 5 4 3 6 7
4 4 4 5 5 5 6 6 5 6 7 7 7 7 7 6 6 5 5 6 6 7 7 8 8 9 9 9 9 8 7 7 6 5 3 5 7 7 6 5 6 6 6
4 4 5 6 5 6 6 6 5 5 6 6 7 8 8 7 6 6 6 7 7 7 7 8 9 10 10 10 9 8 8 7 6 2 3 5 6 8 6 6 5 5 5
4 4 6 5 5 6 6 6 6 6 6 6 7 7 7 8 8 8 8 7 7 7 7 8 9 9 10 10 9 9 8 7 4 2 5 5 6 7 6 6 5 5 5
4 4 6 5 5 6 6 6 7 6 6 6 6 7 8 8 9 9 9 8 7 8 8 8 9 10 9 9 9 9 8 6 3 5 5 6 7 8 7 6 6 6 6
4 5 6 6 5 5 6 6 6 6 6 6 6 7 9 9 9 10 9 9 9 9 9 9 9 9 9 9 9 8 7 4 5 5 5 7 8 8 8 7 6 6 6
4 5 5 6 5 5 6 6 6 6 6 6 7 7 8 8 8 9 9 9 9 9 9 9 9 9 9 9 9 9 7 4 6 6 6 8 10 9 8 7 7 7 6
4 4 5 5 6 6 6 7 6 7 7 7 7 8 9 8 8 9 9 9 9 9 9 9 10 9 9 9 9 9 7 6 5 5 6 7 9 9 9 8 8 8 7
4 4 5 5 5 5 6 7 6 7 7 7 7 8 7 6 7 7 8 9 9 9 9 10 10 10 9 9 8 7 5 4 6 6 6 8 9 9 9 8 8 8 8
4 4 4 5 5 5 5 6 5 6 6 4 6 5 3 5 6 6 9 9 9 9 10 10 10 9 8 8 7 5 4 6 7 7 7 9 8 8 9 9 9 8 8
4 5 5 5 4 4 4 4 4 5 5 5 5 5 5 5 5 6 10 9 9 9 9 9 7 6 4 6 6 4 5 7 7 7 8 10 8 9 9 9 9 9 8
4 4 4 4 4 4 4 4 4 4 4 5 5 5 4 4 4 4 5 6 7 6 6 7 5 5 6 6 5 6 6 6 6 7 9 10 9 9 10 9 9 9 9
4 4 4 4 4 4 4 4 3 3 4 4 4 5 4 4 4 4 3 4 4 5 5 5 4 6 6 6 6 6 7 6 6 7 10 11 10 9 9 10 9 9 9
3 3 3 3 4 4 4 3 4 4 4 4 4 4 4 3 3 4 4 4 4 5 5 4 4 6 6 6 6 6 7 7 7 7 8 12 11 10 9 10 10 9 8
3 3 3 3 3 3 4 4 4 4 4 4 4 4 5 4 3 3 4 4 4 4 4 4 5 5 5 6 6 7 7 7 7 7 7 9 11 11 11 10 10 10 9
3 3 2 2 2 3 4 4 4 4 4 3 4 4 5 4 4 4 3 4 4 4 4 4 5 5 5 5 6 6 6 7 7 7 7 6 8 10 11 11 10 10 9
2 2 3 2 2 3 3 3 3 4 4 4 4 4 4 4 4 4 3 3 4 4 4 3 3 4 4 4 4 4 5 5 6 6 6 6 6 7 9 11 10 10 9
3 3 3 3 3 3 3 3 3 4 4 4 4 4 4 4 4 4 3 3 4 3 3 3 3 3 4 4 4 4 4 4 5 5 6 6 6 6 6 8 8 9 9
3 3 4 4 3 3 2 2 3 2 3 3 3 3 4 4 4 4 3 3 3 3 3 3 4 4 4 3 4 4 4 4 4 5 5 5 6 6 6 6 5 7 8
4 4 4 4 4 3 2 1 2 2 2 2 2 3 3 3 3 4 3 3 2 3 3 3 3 4 3 3 2 3 3 4 4 4 4 4 5 5 6 6 5 5 5
5 4 4 4 3 3 2 1 1 1 1 2 2 2 2 2 2 3 3 2 2 2 2 2 3 2 2 1 0 1 2 3 3 3 3 3 3 4 5 6 6 5 5
6 5 4 4 4 3 3 2 2 2 2 2 2 2 2 2 2 2 3 2 2 2 2 2 2 2 1 1 1 1 1 1 1 2 3 3 3 3 3 4 5 5 5
6 5 5 5 4 4 3 3 2 1 1 1 1 1 2 2 2 2 2 2 2 1 2 2 1 1 2 1 1 1 2 1 1 1 1 2 3 3 3 3 3 4 5
6 5 5 5 4 4 3 3 3 2 1 1 1 2 2 2 2 2 2 2 2 2 2 2 1 1 1 1 0 1 0 0 2 2 1 1 0 1 2 2 2 3 3
6 5 5 5 5 4 4 4 4 3 2 2 2 2 2 2 2 2 2 2 2 2 2 2 2 2 1 1 1 1 1 1 1 1 1 2 1 0 1 1 1 2 2
Wind_Direction
23 22 30 10 23 27 30 33 40 45 52 54 56 63 64 61 64 74 80 82 88 87 90 94 94 99 100 97 100 100 99 101 101 103 101 98 99 98 99 106 129 117 110
26 31 43 19 32 31 31 35 38 45 50 54 58 60 58 55 59 77 88 88 92 89 92 94 95 96 97 96 94 94 94 95 94 99 111 114 106 100 96 89 65 93 106
39 40 58 43 35 35 36 39 45 46 50 53 57 58 53 52 57 67 90 90 91 89 90 94 96 96 94 91 88 88 88 90 91 101 136 116 108 101 93 90 97 105 107
47 44 44 39 35 39 42 47 54 53 50 53 56 58 54 58 59 67 84 91 91 91 91 92 94 95 93 89 84 86 87 87 83 109 111 91 96 95 93 89 96 104 104
54 46 54 36 41 45 48 54 57 57 57 59 59 58 56 60 60 68 83 90 90 92 94 94 95 95 93 89 84 83 83 81 83 79 74 78 83 87 89 89 92 97 99
63 53 63 43 45 49 50 54 57 55 54 59 60 57 58 62 63 66 76 84 88 88 90 92 92 93 92 88 84 82 81 78 96 77 77 79 82 87 86 85 82 92 98
62 58 63 57 48 50 51 52 52 53 52 59 61 58 63 66 68 69 71 76 81 85 89 88 89 91 89 85 80 79 79 70 75 78 76 75 76 78 78 80 82 90 97
62 57 63 85 71 58 54 53 52 52 56 60 62 63 65 68 71 74 75 78 84 85 82 84 87 86 85 82 78 74 68 43 83 79 76 75 75 77 79 83 84 87 89
65 61 59 67 87 93 74 59 56 55 55 56 60 66 68 69 73 76 77 81 86 88 85 86 87 85 84 80 76 74 71 51 71 78 79 77 79 79 81 81 78 81 84
73 66 63 64 60 68 86 78 67 63 61 64 67 66 72 85 86 85 86 84 86 88 88 87 86 84 83 79 73 71 71 73 64 70 69 78 80 78 81 81 81 83 84
75 66 58 60 58 55 64 77 82 88 77 86 92 86 82 79 82 89 79 80 84 86 86 85 83 84 86 87 78 70 67 70 68 63 66 73 79 80 82 81 81 85 85
84 72 61 56 55 58 57 66 65 75 75 65 66 69 69 72 77 79 90 87 86 90 93 89 91 100 92 84 89 90 73 75 69 68 66 69 74 78 82 81 81 80 83
88 77 64 57 58 60 64 61 61 66 69 68 65 70 73 80 91 85 96 103 98 99 90 95 94 78 75 70 64 68 66 69 73 70 65 66 69 74 77 78 78 77 77
98 81 68 55 59 65 66 67 63 68 70 68 63 63 69 71 77 81 86 86 88 85 81 78 79 79 75 74 73 73 71 70 72 74 67 64 64 69 75 74 74 75 75
120 105 81 61 60 66 69 68 73 66 63 72 64 56 68 75 78 84 83 79 80 82 86 82 81 82 78 71 69 70 70 69 71 75 73 67 62 64 69 71 70 70 74
141 123 113 93 81 78 80 75 72 69 74 68 68 62 71 79 81 82 81 81 81 81 80 86 89 89 84 80 75 73 73 75 71 73 74 77 71 63 62 66 67 68 71
150 138 121 101 96 90 81 71 69 67 72 73 70 60 70 73 82 88 83 87 89 91 88 84 93 95 94 91 84 75 71 68 68 65 62 65 73 72 63 60 60 62 66
170 146 135 143 122 106 97 88 77 73 76 75 74 67 70 77 80 85 89 94 96 90 90 89 99 102 97 89 83 77 76 74 68 67 65 64 61 62 67 62 53 52 56
182 161 152 155 139 122 111 99 82 77 75 75 76 73 68 69 75 87 89 93 99 98 94 92 93 94 96 89 83 76 73 72 68 68 68 62 60 57 59 72 66 54 50
188 175 158 157 160 137 136 122 106 83 78 73 69 75 69 69 77 88 99 99 99 100 92 91 92 92 93 95 89 80 74 75 69 64 64 65 60 54 49 48 57 67 61
185 185 173 175 165 157 153 154 131 110 97 85 75 80 84 78 87 90 94 101 97 99 98 98 97 101 97 98 105 100 97 82 73 70 62 61 63 53 51 51 46 44 60
184 184 175 170 168 157 152 151 140 125 110 104 101 98 93 91 87 99 106 109 114 110 109 106 112 114 104 86 39 180 150 135 93 77 76 65 58 60 51 48 50 48 43
189 187 184 176 164 160 158 154 155 146 162 152 136 118 100 104 104 109 108 113 120 130 123 134 145 156 147 111 358 321 293 103 107 109 70 70 60 54 54 51 49 45 46
189 187 186 175 167 163 164 174 177 187 163 158 142 142 138 130 136 137 138 138 134 132 138 156 158 169 179 152 102 360 355 8 251 157 149 85 55 54 51 56 52 47 45
183 182 184 176 175 174 179 180 206 201 179 167 174 166 160 142 162 163 170 170 166 167 173 165 161 179 190 191 185 173 83 5 278 269 210 199 138 92 65 53 61 51 49
182 180 183 186 185 186 196 200 209 206 208 208 210 191 183 170 181 187 188 191 198 198 195 191 193 196 211 214 235 232 253 255 255 262 246 217 229 111 101 71 56 60 52
Height
1543 1541 1538 1538 1537 1536 1536 1535 1535 1534 1534 1533 1532 1532 1531 1531 1530 1530 1530 1529 1529 1529 1530 1530 1530 1530 1530 1530 1530 1531 1532 1532 1533 1533 1533 1534 1534 1534 1534 1534 1535 1535 1535
1543 1541 1539 1538 1538 1537 1536 1536 1536 1535 1535 1534 1533 1532 1532 1531 1530 1530 1530 1530 1530 1530 1530 1531 1531 1531 1531 1531 1532 1532 1533 1533 1534 1534 1534 1535 1535 1535 1535 1535 1536 1536 1536
1544 1542 1541 1539 1539 1538 1537 1537 1536 1536 1535 1535 1534 1533 1532 1531 1530 1529 1530 1530 1531 1531 1532 1532 1532 1532 1532 1533 1533 1533 1534 1534 1535 1535 1536 1536 1536 1536 1536 1536 1536 1537 1537
1544 1543 1542 1540 1540 1539 1538 1538 1537 1537 1536 1536 1535 1534 1533 1532 1531 1530 1530 1531 1531 1532 1532 1533 1533 1533 1534 1534 1534 1535 1535 1535 1536 1536 1537 1537 1537 1537 1537 1537 1537 1537 1537
1545 1544 1543 1541 1541 1540 1539 1539 1538 1538 1537 1537 1536 1535 1534 1533 1532 1531 1531 1532 1532 1533 1534 1534 1535 1535 1535 1535 1535 1536 1536 1536 1536 1537 1537 1537 1537 1537 1537 1537 1538 1538 1538
1546 1545 1544 1542 1542 1541 1540 1540 1539 1539 1538 1538 1537 1536 1535 1534 1533 1533 1533 1533 1534 1534 1535 1535 1536 1536 1536 1536 1537 1537 1537 1537 1538 1538 1538 1538 1538 1538 1538 1538 1538 1538 1538
1547 1546 1545 1544 1543 1542 1542 1541 1540 1540 1539 1539 1538 1537 1536 1536 1536 1535 1535 1535 1535 1536 1536 1537 1537 1537 1538 1538 1538 1538 1538 1538 1539 1538 1538 1538 1538 1538 1538 1538 1538 1538 1538
1548 1547 1546 1545 1544 1543 1543 1542 1542 1541 1540 1540 1540 1539 1538 1538 1537 1537 1537 1537 1537 1537 1537 1538 1538 1539 1539 1539 1539 1539 1539 1539 1540 1540 1539 1539 1539 1539 1539 1539 1539 1538 1539
1549 1548 1548 1547 1546 1545 1544 1544 1543 1542 1542 1541 1541 1540 1540 1539 1539 1539 1539 1539 1539 1539 1539 1539 1540 1540 1540 1540 1540 1540 1540 1540 1541 1541 1541 1540 1540 1540 1539 1539 1539 1539 1539
1550 1549 1549 1548 1548 1547 1546 1545 1544 1543 1543 1542 1542 1542 1542 1541 1541 1541 1541 1541 1541 1541 1541 1541 1541 1541 1541 1541 1541 1542 1541 1542 1542 1542 1542 1541 1541 1541 1540 1540 1540 1540 1540
1550 1550 1550 1550 1549 1548 1548 1546 1545 1545 1544 1544 1544 1543 1543 1544 1543 1543 1543 1542 1542 1542 1543 1543 1543 1543 1543 1543 1543 1543 1543 1544 1543 1543 1542 1542 1542 1542 1541 1541 1541 1540 1540
1551 1551 1551 1550 1550 1549 1548 1548 1547 1547 1546 1546 1545 1545 1545 1545 1544 1544 1544 1544 1544 1544 1544 1544 1544 1544 1545 1545 1544 1544 1545 1545 1544 1544 1544 1543 1543 1543 1542 1542 1542 1541 1541
1552 1552 1552 1551 1551 1550 1549 1549 1548 1547 1546 1547 1546 1546 1546 1546 1546 1546 1546 1545 1545 1546 1546 1545 1546 1546 1546 1546 1545 1546 1546 1546 1546 1546 1545 1545 1545 1544 1544 1543 1543 1542 1542
1553 1553 1552 1552 1552 1551 1550 1549 1549 1548 1548 1548 1547 1547 1547 1547 1547 1547 1547 1547 1547 1547 1547 1547 1547 1547 1547 1547 1547 1547 1547 1547 1547 1547 1546 1546 1546 1545 1545 1544 1543 1543 1543
1553 1553 1553 1552 1552 1551 1551 1550 1550 1549 1549 1549 1548 1548 1548 1547 1548 1548 1548 1547 1548 1548 1548 1548 1548 1548 1548 1548 1547 1548 1548 1548 1548 1548 1548 1547 1547 1546 1546 1545 1544 1544 1543
1553 1553 1553 1553 1552 1552 1551 1551 1550 1550 1549 1549 1549 1549 1549 1548 1548 1548 1548 1548 1548 1548 1548 1548 1548 1548 1548 1548 1548 1548 1548 1548 1549 1549 1549 1548 1548 1547 1546 1546 1545 1544 1544
1553 1553 1553 1553 1553 1552 1552 1551 1551 1551 1551 1550 1550 1550 1549 1549 1549 1549 1549 1549 1549 1549 1549 1549 1549 1549 1549 1549 1549 1549 1549 1549 1549 1549 1549 1549 1549 1548 1547 1546 1546 1545 1544
1553 1553 1553 1552 1553 1552 1552 1552 1552 1551 1551 1551 1550 1550 1550 1550 1550 1549 1549 1549 1549 1549 1549 1549 1549 1549 1549 1550 1550 1550 1550 1550 1550 1550 1550 1550 1550 1549 1548 1547 1546 1546 1545
1552 1553 1553 1552 1553 1552 1552 1552 1552 1552 1551 1551 1551 1551 1550 1550 1550 1550 1549 1549 1549 1549 1549 1549 1549 1550 1550 1550 1550 1550 1551 1551 1551 1551 1551 1551 1550 1549 1549 1548 1547 1546 1546
1551 1552 1552 1552 1552 1552 1552 1552 1552 1552 1552 1552 1551 1551 1551 1551 1550 1550 1550 1550 1550 1549 1549 1549 1549 1549 1550 1550 1551 1551 1551 1551 1551 1551 1551 1551 1550 1550 1549 1548 1548 1547 1546
1550 1551 1551 1552 1552 1552 1552 1552 1552 1552 1552 1552 1552 1551 1551 1551 1551 1550 1550 1550 1550 1550 1549 1549 1549 1550 1550 1550 1551 1551 1552 1552 1552 1551 1552 1551 1551 1550 1550 1549 1548 1547 1547
1549 1550 1551 1551 1551 1551 1551 1552 1552 1552 1552 1552 1552 1551 1551 1551 1551 1551 1550 1550 1550 1549 1549 1549 1549 1550 1550 1550 1551 1552 1553 1554 1552 1552 1552 1551 1551 1550 1550 1549 1548 1547 1546
1547 1548 1549 1550 1550 1550 1551 1551 1551 1552 1552 1552 1552 1551 1551 1551 1550 1550 1550 1550 1550 1550 1550 1550 1550 1550 1550 1551 1551 1553 1553 1552 1553 1553 1552 1552 1551 1550 1550 1549 1548 1547 1546
1546 1547 1548 1549 1550 1550 1550 1551 1551 1552 1552 1552 1552 1551 1551 1550 1550 1550 1550 1550 1550 1550 1550 1550 1551 1551 1551 1551 1551 1551 1552 1552 1553 1553 1553 1552 1551 1550 1550 1548 1548 1547 1546
1544 1545 1547 1548 1548 1549 1549 1550 1550 1551 1551 1551 1551 1551 1550 1550 1550 1550 1550 1550 1551 1550 1550 1550 1551 1551 1551 1551 1551 1551 1551 1551 1552 1552 1552 1552 1551 1550 1549 1548 1547 1546 1546
1542 1543 1545 1546 1547 1547 1548 1548 1549 1549 1550 1550 1550 1550 1550 1549 1549 1549 1549 1550 1550 1550 1550 1550 1550 1550 1550 1550 1551 1551 1551 1551 1551 1551 1552 1551 1551 1550 1549 1548 1547 1546 1545